Voltar ao catálogo

H-2A R/B

AtivoPO
NORAD 33500·ROCKET BODY·🇯🇵 Japan

Lançado Jan 23, 2009 de Tanegashima Space Center

Loading…

Próximas Passagens (próximas 24 horas)

TLE

AtualizadoSource: Space-Track

Época: Sep 14, 2026, 20:52 UTC

1 33500U 09002J   26257.86999572  .00001388  00000-0  10796-3 0  9995
2 33500  98.2175 288.2405 0030549 198.1007 161.9131 15.02806730957792

Acompanhe H-2A R/B em tempo real com AllMySat

Download on the App Store